SBIRS GEO-1 (USA 230)

Last updated on Thu Nov 21 2024 00:02:41 GMT+0000 (Coordinated Universal Time)

1 37481U 11019A 24325.09393299 -.00000003 00000+0 00000+0 0 9997 2 37481 3.3054 50.6115 0002187 191.5113 277.0152 1.00272023 49641
UTC large
Height (km)
Speed (km/s)
/
Latitude / Longitude
Inclination (degrees)
Orbital Period (minutes)
Azimuth
Elevation
Range (km)
Doppler Factor

Next 0 passes for location: London (51.5072 / 0.1276)

Sorry there are no passes over London.